Regional Weather Roundup
Issued by NWS

Home | Current Version | Previous Version | Text Only | Print | Product List | Glossary On
Versions: 1 2 3 4 5 6 7 8 9 10 11 12 13 14 15 16 17 18 19 20 21 22 23 24 25 26 27 28 29 30 31 32 33 34 35 36 37 38 39 40 41 42 43 44 45 46 47 48 49 50
431
ASUS43 KLSX 290107
RWRMO

WEATHER SUMMARY FOR MISSOURI
NATIONAL WEATHER SERVICE SPRINGFIELD MO
800 PM CDT THU JUL 28 2016

NOTE: "FAIR" INDICATES FEW OR NO CLOUDS BELOW 12,000 FEET WITH NO
       SIGNIFICANT WEATHER AND/OR OBSTRUCTIONS TO VISIBILITY.
       CURRENT SKY AND/OR WEATHER CONDITIONS ARE NOT AVAILABLE FOR
       CHILLICOTHE AND FARMINGTON.

MOZ001>031-035>038-043-044-053-054-290200-
...NORTHERN AND WESTERN MISSOURI...

CITY           SKY/WX    TMP DP  RH WIND       PRES   REMARKS
KANSAS CTY INT CLEAR     80  66  62 N7        29.93S
KANSAS C DTWN  CLEAR     85  65  51 N9        29.91S
LEE`S SUMMIT   CLEAR     84  66  54 NE7       29.93S
ST JOSEPH      CLEAR     78  68  71 N6        29.93S
CHILLICOTHE      N/A     83  66  56 N5        29.95R
KIRKSVILLE     CLEAR     77  64  64 N6        29.96R

$$
MOZ066>068-077>081-088>096-101>105-290200-
...SOUTHWEST MISSOURI...

CITY           SKY/WX    TMP DP  RH WIND       PRES   REMARKS
SPRINGFIELD    CLOUDY    81  69  67 N3        29.93S
JOPLIN         CLOUDY    83  75  77 CALM      29.92S HX  90
BRANSON        MOCLDY    81  72  74 CALM      29.96R

$$
MOZ032>034-039>042-045>050-055>058-069>072-290200-
...CENTRAL MISSOURI...

CITY           SKY/WX    TMP DP  RH WIND       PRES   REMARKS
COLUMBIA       PTCLDY    75  72  90 SE3       29.93R
JEFFERSON CITY PTCLDY    75  70  84 SE3       29.92R
ROLLA          CLOUDY    76  69  79 N7        29.95R
SEDALIA        CLEAR     81  73  76 N3        29.94R
OSAGE BEACH    PTCLDY    79  74  84 CALM      29.93R

$$
MOZ051-052-059>065-290200-
...EAST CENTRAL MISSOURI...

CITY           SKY/WX    TMP DP  RH WIND       PRES   REMARKS
ST LOUIS INTL  MOCLDY    84  69  60 N6        29.90R
SPIRIT OF STL  CLOUDY    85  72  65 N3        29.88R HX  91
ST CHARLES     MOCLDY    83  75  77 N3        29.88R HX  90

$$
MOZ072>076-082>087-097>100-106>115-290200-
...SOUTH CENTRAL AND SOUTHEAST MISSOURI...

CITY           SKY/WX    TMP DP  RH WIND       PRES   REMARKS
CAPE GIRARDEAU CLOUDY    78  72  81 W3        29.90R
FARMINGTON     MOCLDY    78  74  87 W3        29.94R
POPLAR BLUFF   CLOUDY    76  72  87 SW3       29.90S
WEST PLAINS    LGT RAIN  72  66  81 N8        29.95F

$$



USA.gov is the U.S. government's official web portal to all federal, state and local government web resources and services.